FW6919 Weather Reports


time (UTC)temp
C
wind
direction
speed
KPH
gust
KPH
rain 1hr
cm
rain 24hr
cm
rain mn
cm
humidity
%
barometer
mb
20260506215617 17 21 12.9 14.5 0.00 0.00 0.43 73 1014.4
20260506215115 17 14 4.8 16.1 0.00 0.00 0.43 73 1014.9
20260506214614 17 12 6.4 16.1 0.00 0.00 0.43 73 1015.0
20260506214114 17 5 6.4 16.1 0.00 0.00 0.43 74 1015.0
20260506213615 16 11 4.8 17.7 0.00 0.00 0.43 75 1014.9
20260506213114 16 13 11.3 19.3 0.00 0.00 0.43 74 1014.9
20260506212614 16 13 16.1 19.3 0.00 0.00 0.43 74 1014.7
20260506212114 16 11 11.3 16.1 0.00 0.00 0.43 74 1014.9
20260506211614 16 13 11.3 14.5 0.00 0.00 0.43 75 1015.0
20260506211114 16 10 6.4 14.5 0.00 0.00 0.43 75 1015.0
20260506210615 16 11 4.8 14.5 0.00 0.00 0.43 75 1015.1
20260506210113 16 11 8.0 14.5 0.00 0.00 0.43 75 1015.1
20260506205615 16 11 11.3 19.3 0.00 0.00 0.43 74 1015.2
20260506205115 16 13 6.4 19.3 0.00 0.00 0.43 75 1015.0
20260506204614 16 11 14.5 19.3 0.00 0.00 0.43 74 1014.9
20260506204115 16 13 8.0 16.1 0.00 0.00 0.43 74 1015.1
20260506203614 16 11 8.0 16.1 0.00 0.00 0.43 75 1015.1
20260506203112 16 5 4.8 16.1 0.00 0.00 0.43 74 1014.9
20260506202613 16 11 11.3 16.1 0.00 0.00 0.43 74 1015.5
20260506202113 16 9 14.5 16.1 0.00 0.00 0.43 74 1015.3
20260506201613 15 12 11.3 16.1 0.00 0.00 0.43 75 1015.5
20260506201113 16 10 11.3 14.5 0.00 0.00 0.43 74 1015.6
20260506200612 16 12 8.0 14.5 0.00 0.00 0.43 74 1015.4
20260506200112 15 33 6.4 16.1 0.00 0.00 0.43 74 1015.6
20260506195613 15 11 11.3 16.1 0.00 0.00 0.43 74 1015.6
20260506195111 15 9 11.3 14.5 0.00 0.00 0.43 76 1015.7
20260506194617 15 12 6.4 14.5 0.00 0.00 0.43 76 1015.8
20260506194112 15 10 8.0 14.5 0.00 0.00 0.43 76 1015.9
20260506193611 15 11 4.8 14.5 0.00 0.00 0.43 76 1016.0
20260506193110 15 15 3.2 9.7 0.00 0.00 0.43 76 1016.0
20260506192610 15 32 4.8 9.7 0.00 0.00 0.43 76 1016.1
20260506192110 15 29 9.7 12.9 0.00 0.00 0.43 76 1016.5
20260506191615 14 10 8.0 12.9 0.00 0.00 0.43 76 1016.1
20260506191115 14 10 6.4 12.9 0.00 0.00 0.43 76 1016.1
20260506190609 14 360 4.8 12.9 0.00 0.00 0.43 76 1016.3
20260506190111 14 5 4.8 12.9 0.00 0.00 0.43 76 1016.4
20260506185611 14 35 8.0 14.5 0.00 0.00 0.43 77 1016.3
20260506185110 14 9 11.3 14.5 0.00 0.00 0.43 77 1016.0
20260506184610 14 11 8.0 12.9 0.00 0.00 0.43 77 1016.2
20260506184112 15 30 3.2 19.3 0.00 0.00 0.43 76 1016.2
20260506183611 15 9 1.6 22.5 0.00 0.00 0.43 77 1015.8
20260506183112 14 30 8.0 22.5 0.00 0.00 0.43 77 1015.5
20260506182613 14 29 16.1 25.7 0.00 0.00 0.43 78 1015.0
20260506182113 14 30 19.3 25.7 0.00 0.00 0.43 78 1015.2
20260506181613 14 10 6.4 25.7 0.00 0.00 0.43 78 1015.3
20260506181111 14 32 12.9 24.1 0.00 0.00 0.43 79 1015.0
20260506180611 13 5 8.0 20.9 0.00 0.00 0.43 80 1015.0
20260506180109 13 30 4.8 25.7 0.00 0.00 0.43 81 1015.5
20260506175613 13 9 6.4 25.7 0.00 0.00 0.43 81 1015.6
20260506175110 13 27 9.7 25.7 0.00 0.00 0.43 82 1015.7
20260506174612 13 11 14.5 25.7 0.00 0.00 0.43 82 1015.6
20260506174112 12 30 8.0 25.7 0.00 0.00 0.43 83 1015.8
20260506173612 12 32 8.0 25.7 0.00 0.00 0.43 84 1015.7
20260506173113 12 10 8.0 22.5 0.00 0.00 0.43 84 1015.7
20260506172622 12 5 6.4 22.5 0.00 0.00 0.43 85 1015.6
20260506172123 12 9 6.4 22.5 0.00 0.00 0.43 85 1015.8
20260506171622 12 32 3.2 25.7 0.00 0.00 0.43 86 1015.7
20260506171121 12 9 11.3 25.7 0.00 0.00 0.43 86 1015.4
20260506170621 12 360 16.1 22.5 0.00 0.00 0.43 87 1015.5
20260506170121 12 35 11.3 20.9 0.00 0.00 0.43 87 1015.6
20260506165620 12 9 11.3 20.9 0.00 0.00 0.43 88 1015.9
20260506165122 11 11 14.5 19.3 0.00 0.00 0.43 88 1016.0
20260506164623 11 11 8.0 16.1 0.00 0.00 0.43 88 1015.9
20260506164123 11 5 9.7 14.5 0.00 0.00 0.43 89 1016.1
20260506163620 11 11 8.0 17.7 0.00 0.00 0.43 88 1016.2
20260506163121 11 11 11.3 19.3 0.00 0.00 0.43 88 1016.4
20260506162620 11 12 17.7 19.3 0.00 0.00 0.43 88 1016.2
20260506162120 11 13 6.4 19.3 0.00 0.00 0.43 88 1016.1
20260506161619 11 5 9.7 17.7 0.00 0.00 0.43 89 1016.1
20260506161119 11 11 8.0 24.1 0.00 0.00 0.43 89 1015.8
20260506160621 11 11 17.7 25.7 0.00 0.00 0.43 89 1015.8
20260506160120 11 13 6.4 27.4 0.00 0.00 0.43 89 1015.4
20260506155617 11 21 17.7 27.4 0.00 0.00 0.43 89 1014.9
20260506155121 11 306 1.6 22.5 0.00 0.00 0.43 90 1015.3
20260506154620 11 316 14.5 22.5 0.00 0.00 0.43 89 1015.5
20260506154121 11 333 4.8 14.5 0.00 0.00 0.43 90 1016.0
20260506153618 11 333 6.4 16.1 0.00 0.00 0.43 89 1015.7
20260506153118 11 318 3.2 16.1 0.00 0.00 0.43 89 1016.0
20260506152618 11 13 8.0 17.7 0.00 0.00 0.43 89 1016.2
20260506152121 11 36 8.0 17.7 0.00 0.00 0.41 88 1015.9
20260506151620 11 24 14.5 24.1 0.00 0.00 0.41 87 1015.9
20260506151119 11 5 14.5 24.1 0.00 0.00 0.33 86 1016.6
20260506150618 11 336 16.1 16.1 0.00 0.00 0.03 84 1018.0
20260506150119 11 340 12.9 16.1 0.00 0.00 0.00 83 1017.7
20260506145617 11 323 8.0 16.1 0.00 0.00 0.00 83 1017.5
20260506145118 11 5 3.2 14.5 0.00 0.00 0.00 82 1017.1
20260506144616 11 327 9.7 14.5 0.00 0.00 0.00 83 1016.8
20260506144116 11 350 6.4 16.1 0.00 0.00 0.00 82 1016.9
20260506143617 11 327 8.0 22.5 0.00 0.00 0.00 83 1016.1
20260506143115 11 331 9.7 22.5 0.00 0.00 0.00 82 1015.4
20260506142617 11 42 14.5 22.5 0.00 0.00 0.00 82 1014.9
20260506142116 11 352 6.4 19.3 0.00 0.00 0.00 82 1015.4
20260506141616 11 26 12.9 19.3 0.00 0.00 0.00 82 1016.0
20260506141116 11 11 8.0 22.5 0.00 0.00 0.00 82 1016.4
20260506140617 11 351 6.4 22.5 0.00 0.00 0.00 82 1016.4
20260506140115 11 317 8.0 20.9 0.00 0.00 0.00 82 1016.2
20260506135616 11 360 8.0 20.9 0.00 0.00 0.00 82 1016.0
20260506135117 11 51 6.4 20.9 0.00 0.00 0.00 82 1015.9
20260506134618 11 51 11.3 22.5 0.00 0.00 0.00 82 1015.7
20260506134113 11 38 4.8 24.1 0.00 0.00 0.00 83 1015.5
20260506133616 11 9 11.3 24.1 0.00 0.00 0.00 83 1015.3
20260506133113 11 360 14.5 20.9 0.00 0.00 0.00 83 1015.0
20260506132613 11 37 6.4 22.5 0.00 0.00 0.00 83 1015.0
20260506132114 11 5 8.0 22.5 0.00 0.00 0.00 83 1015.3
20260506131613 11 327 16.1 22.5 0.00 0.00 0.00 83 1015.1
20260506131114 11 10 14.5 22.5 0.00 0.00 0.00 83 1015.0
20260506130614 11 13 6.4 25.7 0.00 0.00 0.00 83 1014.8
20260506130113 11 360 12.9 25.7 0.00 0.00 0.00 83 1014.8
20260506125612 11 38 16.1 27.4 0.00 0.00 0.00 83 1014.8
20260506125112 11 5 16.1 27.4 0.00 0.00 0.00 83 1014.4
20260506124612 11 341 8.0 25.7 0.00 0.00 0.00 82 1014.6
20260506124110 11 324 16.1 24.1 0.00 0.00 0.00 82 1014.5
20260506123613 11 5 22.5 24.1 0.00 0.00 0.00 81 1014.5
20260506123112 11 344 9.7 20.9 0.00 0.00 0.00 81 1014.6
20260506122612 11 17 17.7 24.1 0.00 0.00 0.00 81 1014.4
20260506122113 12 5 12.9 24.1 0.00 0.00 0.00 81 1014.3
20260506121611 12 331 17.7 25.7 0.00 0.00 0.00 80 1014.2
20260506121111 12 26 9.7 25.7 0.00 0.00 0.00 79 1014.3
20260506120611 12 22 16.1 25.7 0.00 0.00 0.00 78 1014.2
20260506120111 12 360 8.0 25.7 0.00 0.00 0.00 78 1014.2
20260506115615 12 312 17.7 25.7 0.00 0.00 0.00 77 1014.1
20260506115111 12 360 12.9 25.7 0.00 0.00 0.00 77 1014.0
20260506114613 12 336 8.0 22.5 0.00 0.00 0.00 76 1014.0
20260506114112 12 323 12.9 24.1 0.00 0.00 0.00 76 1014.0
20260506113614 12 360 14.5 24.1 0.00 0.00 0.00 76 1013.7
20260506113114 12 360 6.4 22.5 0.00 0.00 0.00 76 1013.7
20260506112614 12 313 14.5 22.5 0.00 0.00 0.00 75 1013.6
20260506112113 13 5 6.4 24.1 0.00 0.00 0.00 76 1013.7
20260506111613 12 5 4.8 27.4 0.00 0.00 0.00 76 1013.3
20260506111111 12 5 19.3 29.0 0.00 0.00 0.00 75 1013.1
20260506110610 13 22 16.1 29.0 0.00 0.00 0.00 75 1013.2
20260506110113 13 342 22.5 29.0 0.00 0.00 0.00 75 1013.2
20260506105612 13 317 8.0 27.4 0.00 0.00 0.00 75 1013.0
20260506105111 13 339 17.7 27.4 0.00 0.00 0.00 75 1012.9
20260506104611 13 329 9.7 24.1 0.00 0.00 0.00 75 1012.8
20260506104111 13 24 6.4 24.1 0.00 0.00 0.00 75 1012.9
20260506103616 13 330 6.4 24.1 0.00 0.00 0.00 75 1012.8
20260506103114 13 352 12.9 24.1 0.00 0.00 0.00 75 1012.7
20260506102615 13 326 20.9 19.3 0.00 0.00 0.00 75 1012.7
20260506102113 13 348 8.0 20.9 0.00 0.00 0.00 75 1012.5
20260506101611 13 46 4.8 20.9 0.00 0.00 0.00 75 1012.4
20260506101110 13 352 3.2 20.9 0.00 0.00 0.00 76 1012.3
20260506100611 13 15 3.2 22.5 0.00 0.00 0.00 76 1012.2
20260506100113 13 21 8.0 22.5 0.00 0.00 0.00 76 1012.3
20260506095629 13 32 8.0 20.9 0.00 0.00 0.00 75 1012.1
20260506095131 13 360 12.9 20.9 0.00 0.00 0.00 75 1012.0
20260506094631 13 28 9.7 22.5 0.00 0.00 0.00 76 1012.0
20260506094129 13 10 16.1 22.5 0.00 0.00 0.00 75 1011.9
20260506093628 13 31 8.0 20.9 0.00 0.00 0.00 75 1012.1
20260506093129 13 32 6.4 19.3 0.00 0.00 0.00 75 1012.1
20260506092627 14 34 4.8 16.1 0.00 0.00 0.00 76 1011.8
20260506092128 14 32 8.0 17.7 0.00 0.00 0.00 76 1011.8
20260506091627 14 9 11.3 20.9 0.00 0.00 0.00 76 1011.9
20260506091129 14 10 8.0 20.9 0.00 0.00 0.00 76 1011.8
20260506090630 14 9 8.0 20.9 0.00 0.00 0.00 76 1011.8
20260506090126 14 360 6.4 20.9 0.00 0.00 0.00 76 1011.9
20260506085628 14 28 8.0 17.7 0.00 0.00 0.00 76 1011.8
20260506085128 14 360 9.7 17.7 0.00 0.00 0.00 76 1011.6
20260506084627 14 5 14.5 17.7 0.00 0.00 0.00 76 1011.6
20260506084125 15 5 1.6 17.7 0.00 0.00 0.00 77 1011.6
20260506083626 15 5 4.8 17.7 0.00 0.00 0.00 76 1011.4
20260506083125 15 10 12.9 17.7 0.00 0.00 0.00 76 1011.5
20260506082624 15 11 6.4 17.7 0.00 0.00 0.00 77 1011.3
20260506082126 15 9 12.9 17.7 0.00 0.00 0.00 77 1011.4
20260506081624 15 360 4.8 16.1 0.00 0.00 0.00 77 1011.6
20260506081125 15 30 3.2 14.5 0.00 0.00 0.00 77 1011.3
20260506080626 15 360 8.0 17.7 0.00 0.00 0.00 76 1011.4
20260506080123 15 30 4.8 17.7 0.00 0.00 0.00 76 1011.5
20260506073125 15 5 8.0 16.1 0.00 0.00 0.00 78 1010.9
20260506072623 15 5 6.4 20.9 0.00 0.00 0.00 78 1010.8
20260506072121 15 9 8.0 20.9 0.00 0.00 0.00 78 1010.7
20260506071622 15 10 11.3 19.3 0.00 0.00 0.00 78 1011.0
20260506071120 15 9 6.4 16.1 0.00 0.00 0.00 78 1010.9
20260506070622 15 9 8.0 16.1 0.00 0.00 0.00 78 1010.8
20260506070122 15 11 11.3 16.1 0.00 0.00 0.00 78 1011.1
20260506062121 15 10 6.4 19.3 0.00 0.00 0.00 78 1011.1
20260506061621 15 5 12.9 22.5 0.00 0.00 0.00 78 1010.9
20260506061119 15 5 8.0 22.5 0.00 0.00 0.00 78 1011.0
20260506060619 15 9 11.3 22.5 0.00 0.00 0.00 77 1011.1
20260506060121 15 360 3.2 19.3 0.00 0.00 0.00 78 1011.1
20260506051119 16 26 16.1 22.5 0.00 0.00 0.00 78 1011.1
20260506050619 16 9 6.4 24.1 0.00 0.00 0.00 78 1011.2
20260506050121 16 26 9.7 24.1 0.00 0.00 0.00 78 1010.9
20260506045120 16 5 4.8 17.7 0.00 0.00 0.00 78 1010.8
20260506044617 16 9 3.2 19.3 0.00 0.00 0.00 78 1010.8
20260506044118 17 9 8.0 20.9 0.00 0.00 0.00 78 1010.8
20260506043618 17 5 4.8 20.9 0.00 0.00 0.00 78 1010.9
20260506043116 17 360 4.8 25.7 0.00 0.00 0.00 78 1010.8
20260506042618 17 26 12.9 25.7 0.00 0.00 0.00 77 1010.8
20260506042116 17 24 16.1 24.1 0.00 0.00 0.00 77 1010.8
20260506041616 17 24 8.0 24.1 0.00 0.00 0.00 76 1010.9
20260506041117 17 5 6.4 32.2 0.00 0.00 0.00 77 1010.8
20260506040616 17 25 9.7 32.2 0.00 0.00 0.00 77 1010.7
20260506040116 17 9 11.3 25.7 0.00 0.00 0.00 77 1010.8
20260506035617 17 24 8.0 25.7 0.00 0.00 0.00 76 1010.7
20260506035117 18 360 6.4 25.7 0.00 0.00 0.00 76 1010.6
20260506034615 18 5 9.7 25.7 0.00 0.00 0.00 76 1010.2
20260506034114 18 9 16.1 22.5 0.00 0.00 0.00 76 1010.2
20260506033615 18 10 6.4 22.5 0.00 0.00 0.00 76 1010.0
20260506033114 18 9 8.0 24.1 0.00 0.00 0.00 76 1009.8
20260506032617 18 5 9.7 25.7 0.00 0.00 0.00 75 1009.8
20260506032115 18 5 17.7 25.7 0.00 0.00 0.00 75 1009.8
20260506031615 19 33 14.5 27.4 0.00 0.00 0.00 75 1009.7
20260506031115 19 10 11.3 27.4 0.00 0.00 0.00 75 1009.6
20260506030614 19 32 16.1 27.4 0.00 0.00 0.00 75 1009.6
20260506030115 20 29 8.0 27.4 0.00 0.00 0.00 75 1009.6
20260506025613 20 35 17.7 22.5 0.00 0.00 0.00 74 1009.5
20260506025115 20 11 11.3 22.5 0.00 0.00 0.00 74 1009.3
20260506024615 20 30 8.0 22.5 0.00 0.00 0.00 73 1009.1
20260506024115 20 28 9.7 22.5 0.00 0.00 0.00 73 1009.0
20260506023613 20 9 6.4 22.5 0.00 0.00 0.00 73 1008.8
20260506023113 20 9 8.0 17.7 0.00 0.00 0.00 73 1008.8
20260506022614 20 32 14.5 17.7 0.00 0.00 0.00 72 1008.8
20260506022114 20 360 4.8 19.3 0.00 0.00 0.00 72 1008.7
20260506021614 20 27 3.2 19.3 0.00 0.00 0.00 72 1008.4
20260506021112 20 10 12.9 20.9 0.00 0.00 0.00 71 1008.3
20260506020614 20 29 9.7 20.9 0.00 0.00 0.00 71 1008.4
20260506020111 20 26 19.3 20.9 0.00 0.00 0.00 71 1008.3
20260506015610 20 30 12.9 19.3 0.00 0.00 0.00 72 1008.1
20260506015113 21 5 8.0 19.3 0.00 0.00 0.00 72 1007.9
20260506014614 21 25 4.8 19.3 0.00 0.00 0.00 72 1007.6
20260506014113 21 9 16.1 17.7 0.00 0.00 0.00 72 1007.6
20260506013613 21 9 6.4 17.7 0.00 0.00 0.00 71 1007.8
20260506013114 21 9 11.3 17.7 0.00 0.00 0.00 71 1007.7
20260506012613 21 27 4.8 17.7 0.00 0.00 0.00 71 1007.4
20260506012111 21 33 6.4 17.7 0.00 0.00 0.00 71 1007.4
20260506011610 22 5 8.0 17.7 0.00 0.00 0.00 71 1007.2
20260506011111 22 10 3.2 17.7 0.00 0.00 0.00 70 1007.3
20260506010612 22 9 16.1 17.7 0.00 0.00 0.00 70 1007.2
20260506010111 22 9 4.8 19.3 0.00 0.00 0.00 69 1007.2
20260506005611 22 360 3.2 19.3 0.00 0.00 0.00 69 1007.2
20260506005115 22 9 8.0 19.3 0.00 0.00 0.00 69 1007.1
20260506004610 22 13 4.8 20.9 0.00 0.00 0.00 70 1006.7
20260506004112 22 360 8.0 24.1 0.00 0.00 0.00 69 1006.9
20260506003614 23 360 4.8 24.1 0.00 0.00 0.00 69 1006.3
20260506003111 23 11 11.3 24.1 0.00 0.00 0.00 69 1006.2
20260506002611 23 11 12.9 22.5 0.00 0.00 0.00 68 1006.5
20260506002112 24 9 16.1 17.7 0.00 0.00 0.00 68 1006.4
20260506001612 24 360 6.4 19.3 0.00 0.00 0.00 67 1006.2
20260506001114 25 44 8.0 22.5 0.00 0.00 0.00 66 1006.2
20260506000612 25 10 12.9 24.1 0.00 0.00 0.00 65 1006.2
20260506000110 25 360 9.7 25.7 0.00 0.00 0.00 64 1006.0
20260505235612 25 36 6.4 32.2 0.00 0.00 0.00 63 1006.0
20260505235113 25 9 14.5 32.2 0.00 0.00 0.00 63 1005.9
20260505234614 26 10 19.3 25.7 0.00 0.00 0.00 63 1006.0
20260505234110 26 40 19.3 25.7 0.00 0.00 0.00 62 1005.9
20260505233613 26 46 6.4 25.7 0.00 0.00 0.00 63 1005.8
20260505233111 26 10 12.9 25.7 0.00 0.00 0.00 62 1005.8
20260505232613 27 360 8.0 27.4 0.00 0.00 0.00 62 1005.7
20260505232113 27 360 6.4 30.6 0.00 0.00 0.00 61 1005.7
20260505231611 27 360 27.4 30.6 0.00 0.00 0.00 60 1005.9
20260505231111 27 342 19.3 27.4 0.00 0.00 0.00 59 1005.6
20260505230613 27 337 19.3 27.4 0.00 0.00 0.00 58 1005.5
20260505230112 28 302 22.5 27.4 0.00 0.00 0.00 59 1005.7
20260505225613 28 304 12.9 27.4 0.00 0.00 0.00 59 1005.6
20260505225114 28 309 12.9 27.4 0.00 0.00 0.00 59 1005.4
20260505224610 29 307 19.3 27.4 0.00 0.00 0.00 57 1005.2
20260505224111 30 19 14.5 25.7 0.00 0.00 0.00 57 1005.0
20260505223614 30 321 6.4 25.7 0.00 0.00 0.00 56 1005.0
20260505223113 30 60 9.7 25.7 0.00 0.00 0.00 55 1005.0
20260505222611 30 5 12.9 25.7 0.00 0.00 0.00 52 1005.0
20260505222114 30 313 12.9 24.1 0.00 0.00 0.00 51 1004.9
20260505221611 30 331 16.1 24.1 0.00 0.00 0.00 50 1004.8
20260505221113 30 346 14.5 22.5 0.00 0.00 0.00 51 1004.7
20260505220610 30 319 16.1 20.9 0.00 0.00 0.00 50 1004.7
20260505220113 30 318 14.5 24.1 0.00 0.00 0.00 50 1004.5